Torna al catalogo

STARLINK-30939

AttivoComunicazioniVLEO
NORAD 58393·PAYLOAD·🇺🇸 United States

Lanciato Nov 20, 2023 da Vandenberg Space Force Base

Loading…

Prossimi Passaggi (prossime 24 ore)

TLE

AggiornatoSource: CelesTrak SupGP

Epoca: Sep 14, 2026, 15:01 UTC

1 58393C 23178V   26257.62618056  .00034732  00000+0  10266-2 0  2577
2 58393  53.1573 199.2934 0001256  93.6227  45.3445 15.34359464    14

Traccia STARLINK-30939 in tempo reale con AllMySat

Download on the App Store